Temperature
14 14 14 13 13 13 12 11 11 10 11 10 10 11 11 11 11 11 11 11 11 11 11 12 12 12 12 13 13 14 14 14 15 15 15 15 15 15 15 15 15 15 15 15
15 14 15 14 13 13 12 12 12 12 11 11 11 12 12 12 12 12 12 12 12 12 11 12 11 12 12 12 13 13 13 14 14 14 14 14 14 15 15 15 15 15 15 15
16 15 15 15 13 12 12 12 12 12 11 12 12 12 12 12 12 13 12 12 12 12 12 12 12 11 12 12 12 12 12 13 13 13 13 14 14 14 14 14 14 14 14 14
16 16 15 14 14 13 13 13 13 12 12 12 12 13 13 12 13 13 13 13 13 13 12 12 12 12 12 11 11 11 12 12 12 12 12 13 13 13 13 13 13 13 13 13
17 16 15 14 14 13 14 14 14 14 14 13 14 15 15 13 13 13 13 13 13 13 13 13 12 12 12 12 11 11 11 11 11 11 12 12 12 12 12 12 12 12 12 13
16 17 16 15 14 13 13 15 14 13 14 14 15 17 16 13 13 13 13 13 13 13 13 13 13 13 13 12 12 11 11 11 11 11 12 12 12 12 12 12 12 12 12 12
17 17 16 15 13 13 15 16 14 13 13 13 14 14 13 13 13 13 14 14 14 14 14 13 13 13 13 12 12 11 11 11 11 11 11 11 11 11 11 11 11 11 11 11
16 17 16 14 13 14 16 14 13 13 13 12 12 12 13 13 13 13 14 14 14 14 14 14 13 13 13 12 12 11 11 11 11 11 11 11 11 11 11 11 11 11 11 11
17 16 14 13 14 13 13 13 13 13 12 12 12 13 13 13 13 13 14 14 15 14 14 14 14 13 13 12 12 12 11 11 11 11 11 11 11 11 11 11 11 11 11 10
15 15 14 13 12 12 12 12 12 12 12 12 12 12 13 13 13 14 14 14 15 15 15 14 14 14 13 13 12 12 12 11 11 11 11 11 11 11 10 10 10 10 10 10
16 15 13 13 13 12 12 12 12 12 12 12 12 12 12 13 13 14 14 14 15 15 15 15 15 14 14 13 13 12 12 12 11 11 11 10 10 10 10 10 10 10 10 10
17 16 16 15 13 12 12 12 12 12 12 12 12 12 12 12 13 14 14 15 15 15 15 15 15 15 14 14 13 13 12 12 11 11 11 10 10 10 10 10 10 10 10 10
15 14 14 14 13 13 12 12 12 12 12 12 12 12 12 13 13 14 14 15 15 15 16 16 15 15 15 14 14 13 12 12 11 11 11 10 10 10 10 10 10 10 10 10
13 13 13 13 13 13 12 12 12 12 12 12 12 12 13 13 13 14 15 15 16 16 16 16 16 15 15 15 14 13 12 12 11 11 11 10 10 10 10 10 9 9 9 10
13 13 14 13 13 12 12 12 12 12 12 12 12 12 13 13 13 14 15 15 15 15 16 16 16 16 15 15 14 13 12 12 11 11 11 10 10 10 10 10 10 9 9 9
13 12 13 13 13 12 12 12 12 12 12 12 12 12 13 13 13 13 14 15 15 16 16 16 16 16 15 15 14 13 12 12 11 11 11 11 10 10 10 10 10 10 9 9
13 13 13 13 13 13 12 12 12 12 12 12 12 13 13 13 13 13 14 15 15 15 16 16 16 16 15 15 14 13 12 12 12 11 11 11 10 10 10 10 10 9 9 9
14 14 14 14 13 13 12 12 12 12 12 12 12 12 12 12 13 13 14 14 14 14 15 15 16 16 15 15 14 13 13 12 11 11 11 11 10 10 10 10 9 9 9 9
14 14 13 13 13 13 13 12 12 12 12 12 12 12 12 12 13 13 13 13 13 14 15 15 15 15 15 15 15 14 13 12 11 11 11 11 11 10 10 10 9 9 9 9
14 14 13 13 13 13 12 12 12 12 12 12 12 12 12 12 12 13 13 12 13 14 14 15 15 15 15 15 15 14 13 12 12 11 11 11 11 10 10 10 9 9 9 8
13 13 13 13 13 13 12 12 12 12 12 12 12 12 12 12 12 12 12 12 12 13 14 15 15 15 15 15 15 14 14 13 12 12 11 11 11 10 10 10 10 9 9 8
13 13 13 13 13 13 12 12 12 12 12 12 12 12 12 12 12 12 12 12 13 13 13 14 14 15 15 15 15 14 14 13 13 12 12 11 11 11 10 10 10 9 9 9
13 13 13 13 13 13 12 12 12 12 12 12 12 12 12 12 12 12 12 12 12 13 13 13 14 14 15 15 15 14 14 14 13 13 12 12 11 11 11 10 10 10 9 9
12 13 13 13 13 13 12 12 12 12 12 12 12 12 12 12 12 12 12 12 12 13 13 13 13 14 14 14 14 14 14 14 13 13 13 12 12 11 11 10 10 10 10 10
12 12 13 13 13 13 12 12 12 12 12 12 12 12 12 12 12 12 12 12 12 13 13 13 13 13 14 14 14 14 14 14 13 13 13 13 12 12 11 11 10 10 10 10
11 12 12 13 13 13 13 12 12 12 12 12 12 12 12 12 12 12 12 12 12 12 13 13 13 13 13 13 14 14 14 14 14 13 13 13 12 12 12 11 11 11 10 10
11 11 12 12 12 12 12 12 12 12 12 12 12 12 12 12 12 12 12 12 12 12 12 12 13 13 13 13 13 13 13 13 13 13 13 13 13 12 12 12 11 11 11 10
Wind_Speed
9 6 7 11 13 13 13 8 6 5 6 10 14 13 12 13 13 15 15 16 15 15 13 13 12 12 11 11 10 9 8 7 7 6 5 4 3 1 0 1 2 4 4 5
5 3 4 9 12 10 9 7 7 6 6 10 11 9 11 13 13 13 13 14 14 14 14 13 13 12 12 12 11 10 10 10 9 8 7 5 4 3 1 0 1 2 3 4
3 2 3 4 7 7 5 6 6 6 7 11 9 10 11 11 11 12 12 12 12 12 12 12 12 12 12 12 11 11 11 11 10 9 8 7 6 5 4 3 2 1 1 1
2 3 1 3 1 2 2 3 4 4 7 9 8 6 5 10 11 11 11 11 11 11 11 11 11 11 11 11 11 12 12 12 11 10 10 9 8 8 7 6 6 5 5 4
1 2 3 3 3 2 1 2 3 6 8 10 9 1 7 12 12 10 10 9 9 9 9 10 10 10 10 11 12 12 12 12 11 11 10 10 10 9 8 7 7 7 7 7
3 2 2 5 5 2 3 1 2 5 8 10 9 5 9 14 13 11 10 8 8 8 9 9 9 8 9 10 11 11 11 11 10 10 10 10 10 9 8 7 7 7 7 8
3 2 2 6 6 4 2 4 2 3 6 8 8 8 10 12 10 9 8 8 8 8 7 8 8 8 9 10 10 9 8 9 9 9 9 9 8 8 8 7 7 7 7 7
3 3 3 9 7 5 2 3 1 3 5 7 8 9 10 10 10 9 9 8 8 7 7 6 6 7 7 7 6 6 6 7 8 8 8 7 8 8 8 7 7 7 7 7
4 0 4 8 5 1 1 1 1 3 5 7 8 9 10 11 10 10 9 9 8 8 7 6 5 5 6 5 4 4 5 5 6 6 7 7 8 8 7 7 7 7 7 7
5 6 7 7 6 5 4 2 2 4 5 6 7 9 10 10 10 10 10 9 9 8 7 7 6 4 4 3 2 3 4 5 5 6 6 7 6 6 7 7 7 7 7 7
6 5 7 9 9 8 5 3 3 3 3 5 7 8 9 9 10 9 9 9 8 8 8 8 6 5 3 2 2 3 4 4 5 6 5 5 6 5 6 7 7 6 6 6
6 8 8 9 12 10 7 5 3 2 3 4 5 7 9 9 9 9 9 9 9 8 8 7 6 5 3 1 2 2 4 4 4 5 5 5 5 6 5 5 7 9 10 9
1 7 6 7 11 11 8 5 3 2 3 4 5 6 7 8 8 9 9 9 9 9 8 7 6 4 3 0 1 1 3 3 4 4 4 5 5 5 5 5 5 8 12 13
5 9 8 9 10 10 8 5 4 2 2 3 4 5 7 8 8 9 10 10 9 8 7 6 5 4 3 0 1 1 2 3 3 4 4 5 5 5 5 5 5 6 8 11
10 9 7 10 11 10 8 6 5 3 2 2 3 5 7 8 9 9 9 9 8 7 7 7 5 5 3 1 2 3 2 3 3 3 3 4 4 4 5 5 5 5 5 6
14 10 9 12 12 12 10 8 6 4 3 2 3 5 6 7 8 8 8 8 8 8 8 8 7 6 2 1 3 3 3 3 2 2 3 3 3 3 4 4 5 5 5 6
17 16 14 14 14 13 11 9 7 5 4 3 3 5 6 7 7 8 9 8 7 5 7 8 8 6 1 2 3 3 4 4 4 2 2 2 3 3 3 3 4 4 5 5
18 16 15 14 14 13 11 9 7 6 5 3 3 4 5 6 7 8 9 8 7 4 7 8 9 6 1 2 3 3 3 4 3 2 2 2 2 2 2 3 3 4 4 4
16 15 14 13 12 11 11 10 9 7 6 4 4 4 4 5 6 7 8 7 7 7 9 10 11 6 1 2 3 3 4 3 3 3 2 3 2 2 1 1 2 2 2 2
16 15 14 13 11 10 9 9 8 7 6 5 4 4 4 4 5 7 7 5 5 6 9 11 9 5 3 1 3 4 4 4 4 3 3 3 3 2 2 1 1 1 2 2
16 15 14 13 12 11 10 9 9 8 7 6 6 5 5 5 5 6 6 5 6 8 10 9 6 5 4 2 5 5 5 5 4 4 4 4 3 3 3 3 2 2 1 2
16 16 15 14 13 11 10 10 9 8 8 7 7 6 5 6 5 5 5 4 6 9 9 7 6 7 8 7 5 5 6 6 5 5 5 4 4 4 4 3 3 2 2 2
15 15 15 15 14 13 12 11 10 9 9 9 8 7 7 6 5 5 5 4 6 9 8 6 9 12 12 7 5 6 7 7 6 6 5 5 5 5 4 4 3 3 3 3
12 14 15 14 14 14 13 12 11 10 10 9 8 8 7 6 6 6 6 5 6 9 7 8 10 12 10 5 5 6 7 7 7 6 6 6 5 5 5 4 4 4 4 4
8 11 13 14 14 13 13 12 12 11 10 9 9 9 8 7 7 6 6 6 7 8 7 7 8 10 7 4 4 5 6 6 6 6 6 6 6 6 6 5 5 5 5 5
4 6 8 11 12 11 10 10 10 9 9 9 9 8 8 7 8 7 6 7 8 7 7 6 7 7 6 5 5 5 5 6 6 7 8 7 7 7 6 6 7 6 6 6
2 3 5 7 9 9 9 10 10 10 10 10 10 9 8 8 7 8 8 7 6 6 6 5 6 6 6 5 5 5 5 6 6 7 8 8 7 7 7 8 7 6 6 6
Wind_Direction
101 92 58 45 33 38 46 39 39 18 18 358 350 353 1 8 18 26 29 31 31 33 33 32 33 36 36 35 36 46 56 55 51 53 51 49 54 52 131 237 244 241 237 238
127 122 58 51 34 33 37 27 19 27 32 349 342 358 12 17 23 28 29 32 34 37 36 34 35 37 41 42 43 49 53 50 47 50 49 46 46 41 45 50 251 243 242 243
128 159 203 52 24 22 32 25 8 9 344 332 346 360 9 10 17 24 27 30 34 36 36 35 36 36 41 44 48 52 54 53 50 53 54 52 55 57 53 55 55 41 351 293
145 190 104 82 56 323 327 24 18 348 334 337 332 332 16 20 15 18 19 23 26 29 32 34 36 39 45 49 51 53 53 52 51 53 55 56 57 56 53 54 55 46 38 35
181 129 126 173 191 235 298 47 12 354 355 353 336 215 60 26 10 5 5 7 13 16 24 32 32 32 43 50 52 52 50 50 51 53 53 53 54 52 50 54 56 53 47 42
199 206 159 147 144 171 240 137 48 353 357 358 358 47 27 359 353 354 355 359 1 7 19 27 27 27 40 48 50 49 47 49 50 49 48 48 48 46 48 53 54 59 54 44
210 209 141 144 149 183 221 93 72 359 355 358 8 2 339 339 348 349 349 350 350 359 12 15 15 24 39 45 48 47 48 49 48 47 46 43 43 42 43 47 48 46 48 43
210 214 181 154 168 201 67 87 56 0 358 351 344 343 347 350 353 353 353 352 349 351 0 5 9 18 39 43 42 45 48 47 46 43 39 38 40 39 38 36 41 39 36 35
226 70 96 170 187 166 156 213 1 353 349 340 338 345 349 351 354 355 352 350 348 344 344 357 13 13 25 37 35 43 48 44 42 46 45 39 39 40 39 37 37 34 29 24
231 216 193 192 199 201 213 249 307 321 327 332 337 343 347 349 351 352 351 349 343 339 340 350 359 359 4 15 17 30 42 40 41 45 53 55 49 46 45 38 35 31 25 18
224 189 185 204 205 199 201 224 259 298 322 335 338 345 347 346 349 348 345 343 340 338 335 334 339 344 348 350 350 20 43 50 51 55 58 64 67 51 48 52 32 16 13 9
210 189 186 188 190 191 196 208 230 280 320 341 343 343 344 345 346 344 342 342 340 339 333 332 336 338 344 329 321 3 42 49 51 56 61 64 79 96 79 53 42 34 25 14
154 165 158 146 167 180 192 200 212 254 309 330 341 344 342 343 345 345 345 347 343 338 334 332 334 342 355 324 249 22 53 61 62 55 62 66 67 71 92 112 106 67 46 40
159 157 161 165 169 177 183 188 200 229 277 316 331 339 342 344 349 352 350 346 340 338 342 344 345 359 5 115 163 125 86 78 73 72 68 70 72 69 66 69 76 76 70 53
188 188 174 167 167 173 180 187 202 220 252 305 330 338 344 346 348 348 346 344 341 353 2 0 3 10 10 148 160 138 117 102 90 87 87 83 83 81 78 75 70 61 61 66
186 188 176 173 176 179 185 195 208 217 230 279 319 336 339 337 338 345 352 353 352 360 1 359 1 359 358 163 154 139 118 87 90 117 112 101 94 87 81 77 73 65 52 38
181 188 187 185 185 188 194 200 209 214 221 249 299 323 328 332 342 353 356 354 350 353 1 1 355 349 344 176 165 152 142 141 166 151 109 104 98 89 83 79 75 73 65 44
196 195 193 190 188 191 197 201 205 211 223 239 279 302 320 332 340 344 345 344 348 2 14 5 355 342 343 175 171 161 159 156 157 131 130 133 118 106 89 83 84 88 94 87
199 197 198 198 196 196 198 201 204 209 213 222 246 281 308 319 329 334 336 342 353 357 357 352 337 336 350 172 177 181 177 170 170 163 161 153 180 154 137 109 100 96 94 86
198 197 198 198 198 200 200 201 202 205 210 217 234 261 286 309 325 328 329 335 359 350 335 335 333 338 335 203 208 201 192 192 194 188 188 195 194 187 182 168 143 129 125 117
198 196 195 196 196 199 203 202 201 206 208 212 230 253 277 298 309 315 320 325 352 351 334 321 329 338 328 308 232 220 207 203 205 206 201 203 205 205 206 201 197 196 179 160
200 198 197 198 197 200 202 203 205 208 209 214 227 243 260 277 291 302 298 304 329 337 331 329 336 342 329 299 242 223 215 211 209 208 209 211 213 215 215 213 212 205 198 190
203 202 201 201 203 205 202 203 207 209 214 219 226 235 247 265 280 287 297 318 328 331 325 327 335 328 317 281 240 223 217 214 211 210 211 213 214 216 217 213 210 202 203 196
208 206 206 205 206 207 205 207 210 213 218 224 229 234 241 252 260 256 269 289 300 311 315 326 327 325 311 277 249 231 222 216 213 212 209 210 213 213 212 210 207 203 200 194
214 210 208 205 206 209 213 211 210 213 219 225 231 230 233 239 251 266 275 286 298 302 311 320 320 319 311 296 269 246 233 224 218 211 208 210 211 213 213 209 207 203 199 197
233 220 216 213 214 213 212 209 210 212 216 224 231 230 228 228 235 246 257 268 276 286 297 309 318 315 321 313 294 269 250 231 217 218 218 215 212 210 211 209 207 204 201 197
307 248 232 228 225 222 219 214 215 218 219 224 231 231 226 224 225 231 241 252 263 273 285 297 308 315 317 310 297 280 262 247 234 226 221 217 215 213 210 208 204 200 195 193
Height
1567 1568 1567 1567 1566 1563 1562 1565 1566 1567 1563 1561 1556 1552 1548 1543 1538 1534 1530 1526 1523 1520 1518 1515 1513 1511 1509 1508 1507 1506 1507 1507 1508 1508 1509 1509 1510 1511 1512 1513 1514 1514 1515 1515
1566 1567 1566 1566 1568 1567 1567 1567 1566 1562 1563 1562 1557 1553 1550 1546 1543 1540 1536 1533 1530 1527 1524 1521 1519 1516 1514 1511 1510 1509 1508 1508 1508 1508 1509 1509 1509 1510 1510 1511 1511 1512 1512 1512
1560 1564 1564 1566 1571 1571 1570 1569 1568 1567 1567 1562 1558 1555 1552 1549 1547 1544 1541 1538 1535 1533 1530 1527 1524 1521 1518 1516 1514 1512 1511 1510 1509 1509 1509 1509 1509 1509 1509 1509 1509 1509 1509 1509
1559 1562 1566 1572 1572 1573 1571 1569 1568 1567 1565 1562 1559 1556 1554 1552 1550 1547 1545 1542 1540 1537 1534 1532 1529 1526 1523 1521 1519 1517 1515 1513 1512 1512 1511 1510 1510 1509 1509 1508 1507 1507 1506 1506
1557 1559 1565 1569 1570 1570 1568 1566 1567 1565 1563 1561 1557 1555 1554 1553 1551 1550 1547 1545 1543 1540 1538 1535 1532 1530 1528 1526 1523 1521 1519 1517 1516 1515 1514 1513 1511 1510 1509 1508 1507 1506 1505 1504
1558 1556 1561 1563 1568 1570 1571 1564 1567 1566 1564 1561 1557 1551 1556 1555 1553 1551 1549 1547 1545 1543 1541 1538 1535 1533 1532 1529 1527 1524 1522 1521 1519 1518 1516 1515 1513 1512 1511 1510 1508 1507 1506 1505
1556 1555 1557 1563 1567 1571 1567 1564 1567 1566 1565 1564 1561 1561 1560 1557 1554 1552 1551 1549 1547 1545 1543 1540 1538 1536 1534 1532 1529 1527 1526 1524 1522 1521 1519 1517 1516 1514 1512 1511 1510 1508 1507 1505
1555 1555 1561 1562 1566 1565 1563 1565 1566 1566 1566 1565 1563 1562 1560 1558 1555 1553 1551 1550 1548 1546 1545 1542 1540 1538 1536 1534 1532 1530 1528 1526 1524 1523 1521 1519 1517 1516 1514 1512 1511 1509 1508 1507
1553 1556 1559 1561 1562 1564 1565 1565 1566 1566 1565 1565 1563 1562 1560 1558 1556 1554 1552 1550 1549 1547 1546 1544 1542 1540 1538 1536 1534 1532 1530 1528 1527 1525 1523 1521 1519 1517 1516 1514 1512 1511 1510 1508
1554 1554 1558 1560 1562 1563 1564 1565 1565 1565 1565 1564 1563 1562 1560 1558 1556 1554 1552 1550 1549 1547 1546 1545 1543 1541 1539 1537 1535 1534 1532 1530 1529 1527 1525 1523 1521 1519 1518 1516 1514 1513 1511 1510
1549 1551 1556 1558 1559 1561 1563 1564 1564 1564 1564 1563 1562 1561 1559 1558 1556 1554 1552 1550 1549 1547 1546 1545 1543 1542 1540 1538 1537 1536 1534 1532 1531 1529 1527 1525 1523 1522 1520 1519 1517 1516 1514 1512
1543 1546 1549 1552 1556 1559 1561 1563 1563 1564 1564 1563 1562 1561 1559 1558 1556 1553 1552 1550 1548 1547 1546 1544 1543 1542 1540 1538 1537 1537 1536 1534 1532 1531 1529 1527 1526 1525 1523 1522 1520 1518 1517 1515
1543 1545 1548 1550 1554 1557 1560 1561 1562 1563 1563 1562 1561 1560 1558 1557 1555 1553 1552 1550 1548 1547 1545 1544 1543 1541 1540 1538 1537 1537 1536 1535 1533 1532 1531 1529 1528 1528 1526 1525 1523 1521 1520 1518
1542 1545 1548 1550 1553 1556 1558 1560 1561 1561 1561 1561 1560 1559 1558 1556 1555 1553 1551 1549 1548 1546 1545 1544 1542 1541 1540 1539 1538 1537 1536 1535 1534 1533 1532 1531 1530 1529 1528 1527 1526 1525 1523 1520
1541 1544 1546 1548 1551 1554 1556 1558 1560 1560 1561 1560 1559 1558 1557 1556 1554 1552 1551 1549 1548 1546 1545 1544 1542 1541 1540 1539 1538 1537 1537 1536 1535 1534 1533 1533 1532 1531 1530 1529 1528 1527 1525 1523
1538 1541 1544 1547 1549 1552 1554 1556 1558 1559 1559 1559 1559 1558 1556 1555 1553 1552 1550 1548 1547 1546 1545 1543 1542 1541 1540 1539 1538 1538 1537 1536 1535 1535 1535 1534 1534 1533 1532 1531 1530 1529 1527 1525
1535 1538 1541 1544 1547 1549 1552 1554 1556 1557 1557 1557 1557 1556 1555 1554 1553 1551 1550 1548 1547 1545 1544 1543 1542 1541 1540 1539 1539 1538 1537 1536 1536 1536 1536 1535 1535 1534 1534 1533 1532 1530 1528 1527
1532 1535 1539 1541 1544 1547 1549 1551 1553 1554 1555 1555 1555 1555 1554 1553 1552 1550 1548 1547 1546 1545 1544 1543 1542 1541 1540 1539 1539 1538 1538 1537 1537 1537 1536 1536 1536 1535 1534 1534 1533 1531 1530 1528
1530 1534 1537 1540 1543 1545 1547 1549 1550 1551 1552 1553 1553 1553 1552 1551 1550 1549 1547 1546 1545 1544 1543 1542 1541 1540 1540 1539 1538 1538 1537 1537 1537 1536 1536 1536 1536 1535 1535 1534 1533 1532 1531 1529
1527 1531 1534 1538 1540 1542 1544 1546 1547 1548 1549 1550 1551 1551 1550 1549 1548 1547 1546 1545 1544 1542 1541 1540 1540 1539 1538 1538 1538 1537 1537 1536 1536 1536 1536 1536 1536 1535 1535 1534 1533 1532 1531 1530
1523 1527 1531 1534 1537 1539 1541 1543 1544 1546 1547 1547 1548 1548 1548 1547 1546 1545 1544 1544 1543 1541 1540 1539 1538 1537 1537 1536 1536 1536 1536 1535 1535 1535 1535 1535 1535 1535 1534 1534 1533 1532 1531 1530
1520 1523 1527 1531 1534 1537 1538 1540 1541 1543 1544 1545 1545 1546 1545 1545 1544 1543 1542 1542 1540 1539 1538 1537 1536 1535 1534 1534 1534 1534 1534 1534 1534 1533 1533 1533 1534 1534 1534 1533 1532 1531 1530 1529
1516 1520 1523 1527 1530 1533 1535 1537 1538 1539 1541 1542 1542 1543 1543 1543 1542 1541 1541 1540 1538 1537 1535 1534 1533 1532 1532 1531 1532 1532 1532 1532 1532 1532 1532 1532 1532 1532 1532 1532 1531 1530 1529 1528
1512 1515 1519 1523 1527 1529 1531 1533 1535 1536 1537 1538 1539 1539 1540 1539 1539 1538 1538 1537 1535 1534 1533 1532 1531 1530 1529 1529 1529 1529 1529 1529 1530 1530 1530 1529 1529 1530 1530 1530 1529 1529 1528 1527
1508 1511 1515 1518 1521 1523 1527 1529 1531 1532 1533 1534 1535 1536 1536 1536 1536 1535 1535 1534 1533 1532 1531 1529 1528 1527 1526 1526 1525 1526 1526 1527 1527 1527 1527 1527 1527 1527 1527 1527 1527 1527 1526 1526
1505 1507 1510 1513 1516 1519 1522 1524 1525 1527 1528 1529 1530 1531 1532 1532 1532 1532 1531 1531 1530 1529 1528 1527 1525 1524 1523 1523 1522 1522 1523 1523 1523 1524 1524 1524 1524 1524 1524 1524 1524 1524 1524 1524
1504 1504 1506 1508 1510 1513 1515 1518 1520 1521 1523 1524 1526 1527 1527 1527 1528 1528 1527 1527 1526 1526 1525 1524 1523 1522 1521 1520 1519 1519 1519 1519 1520 1520 1521 1521 1521 1521 1521 1521 1521 1521 1522 1522